Time,TemperatureF,DewpointF,PressureIn,WindDirection,WindDirectionDegrees,WindSpeedMPH,WindSpeedGustMPH,Humidity,HourlyPrecipIn,Conditions,Clouds,dailyrainin,SoftwareType,DateUTC
2013-10-05 00:00:00,59.2,54.7,29.91,North,-999,0.0,0.0,85,0.00,,,-99.99,FreeWX 2.05,2013-10-04 23:00:00,
2013-10-05 00:10:00,59.2,54.7,29.94,North,-999,0.0,0.0,85,0.00,,,-99.99,FreeWX 2.05,2013-10-04 23:10:00,
2013-10-05 00:15:00,59.2,54.7,29.94,North,-999,0.0,0.0,85,0.00,,,-99.99,FreeWX 2.05,2013-10-04 23:15:00,
2013-10-05 00:25:00,59.4,55.2,29.94,North,-999,0.0,0.0,86,0.00,,,-99.99,FreeWX 2.05,2013-10-04 23:25:00,
2013-10-05 00:30:00,59.4,55.2,29.94,North,-999,0.0,0.0,86,0.00,,,-99.99,FreeWX 2.05,2013-10-04 23:30:00,
2013-10-05 00:40:00,59.5,55.4,29.94,North,-999,0.0,0.0,86,0.00,,,-99.99,FreeWX 2.05,2013-10-04 23:40:00,
2013-10-05 00:45:00,59.5,55.6,29.94,North,-999,0.0,0.0,87,0.00,,,-99.99,FreeWX 2.05,2013-10-04 23:45:00,
2013-10-05 00:55:00,59.7,55.8,29.94,North,-999,0.0,0.0,87,0.00,,,-99.99,FreeWX 2.05,2013-10-04 23:55:00,
2013-10-05 01:00:00,59.7,55.8,29.94,North,-999,0.0,0.0,87,0.00,,,-99.99,FreeWX 2.05,2013-10-05 00:00:00,
2013-10-05 01:10:00,59.7,55.8,29.94,North,-999,0.0,3.6,87,0.00,,,-99.99,FreeWX 2.05,2013-10-05 00:10:00,
2013-10-05 01:20:00,59.7,56.1,29.94,North,-999,0.0,6.7,88,0.00,,,-99.99,FreeWX 2.05,2013-10-05 00:20:00,
2013-10-05 01:25:00,59.7,56.1,29.94,North,-999,0.0,4.0,88,0.00,,,-99.99,FreeWX 2.05,2013-10-05 00:25:00,
2013-10-05 01:35:00,59.4,55.8,29.94,North,-999,0.0,3.1,88,0.00,,,-99.99,FreeWX 2.05,2013-10-05 00:35:00,
2013-10-05 01:45:00,59.2,55.9,29.94,North,-999,0.0,5.4,89,0.00,,,-99.99,FreeWX 2.05,2013-10-05 00:45:00,
2013-10-05 01:50:00,59.2,55.9,29.94,North,-999,0.0,4.0,89,0.00,,,-99.99,FreeWX 2.05,2013-10-05 00:50:00,
2013-10-05 01:55:00,59.2,55.9,29.94,North,-999,0.0,3.6,89,0.00,,,-99.99,FreeWX 2.05,2013-10-05 00:55:00,
2013-10-05 02:05:00,59.0,55.8,29.94,North,-999,0.0,0.0,89,0.00,,,-99.99,FreeWX 2.05,2013-10-05 01:05:00,
2013-10-05 02:15:00,58.8,55.9,29.94,North,-999,0.0,0.0,90,0.00,,,-99.99,FreeWX 2.05,2013-10-05 01:15:00,
2013-10-05 02:25:00,58.5,55.6,29.97,North,-999,0.0,3.1,90,0.00,,,-99.99,FreeWX 2.05,2013-10-05 01:25:00,
2013-10-05 02:30:00,58.5,55.6,29.97,North,-999,0.0,0.0,90,0.00,,,-99.99,FreeWX 2.05,2013-10-05 01:30:00,
2013-10-05 02:35:00,58.3,55.4,29.97,North,-999,0.0,0.0,90,0.00,,,-99.99,FreeWX 2.05,2013-10-05 01:35:00,
2013-10-05 02:40:00,58.1,55.2,29.97,North,-999,0.0,4.0,90,0.00,,,-99.99,FreeWX 2.05,2013-10-05 01:40:00,
2013-10-05 02:45:00,58.1,55.2,29.97,North,-999,0.0,4.0,90,0.00,,,-99.99,FreeWX 2.05,2013-10-05 01:45:00,
2013-10-05 02:50:00,57.9,55.2,29.97,North,-999,0.0,4.9,91,0.00,,,-99.99,FreeWX 2.05,2013-10-05 01:50:00,
2013-10-05 03:00:00,57.6,54.9,29.94,North,-999,0.0,0.0,91,0.00,,,-99.99,FreeWX 2.05,2013-10-05 02:00:00,
2013-10-05 03:05:00,57.2,54.7,29.94,North,-999,0.0,0.0,91,0.00,,,-99.99,FreeWX 2.05,2013-10-05 02:05:00,
2013-10-05 03:15:00,56.8,54.3,29.97,North,-999,0.0,0.0,91,0.00,,,-99.99,FreeWX 2.05,2013-10-05 02:15:00,
2013-10-05 03:20:00,56.7,54.1,29.97,North,-999,0.0,0.0,91,0.00,,,-99.99,FreeWX 2.05,2013-10-05 02:20:00,
2013-10-05 03:30:00,56.5,54.0,29.97,North,-999,0.0,0.0,91,0.00,,,-99.99,FreeWX 2.05,2013-10-05 02:30:00,
2013-10-05 03:40:00,56.1,53.6,29.97,North,-999,0.0,0.0,91,0.00,,,-99.99,FreeWX 2.05,2013-10-05 02:40:00,
2013-10-05 03:45:00,55.9,53.4,29.97,North,-999,0.0,0.0,91,0.00,,,-99.99,FreeWX 2.05,2013-10-05 02:45:00,
2013-10-05 03:55:00,55.8,53.2,29.97,North,-999,0.0,0.0,91,0.00,,,-99.99,FreeWX 2.05,2013-10-05 02:55:00,
2013-10-05 04:00:00,55.8,53.2,29.97,North,-999,0.0,0.0,91,0.00,,,-99.99,FreeWX 2.05,2013-10-05 03:00:00,
2013-10-05 04:05:00,55.8,53.4,29.97,North,-999,0.0,0.0,92,0.00,,,-99.99,FreeWX 2.05,2013-10-05 03:05:00,
2013-10-05 04:10:00,55.6,53.2,29.97,North,-999,0.0,0.0,92,0.00,,,-99.99,FreeWX 2.05,2013-10-05 03:10:00,
2013-10-05 04:20:00,55.6,53.2,29.97,North,-999,0.0,0.0,92,0.00,,,-99.99,FreeWX 2.05,2013-10-05 03:20:00,
2013-10-05 04:25:00,55.6,53.2,29.97,North,-999,0.0,0.0,92,0.00,,,-99.99,FreeWX 2.05,2013-10-05 03:25:00,
2013-10-05 04:30:00,55.8,53.4,29.97,North,-999,0.0,0.0,92,0.00,,,-99.99,FreeWX 2.05,2013-10-05 03:30:00,
2013-10-05 04:35:00,55.8,53.4,29.97,North,-999,0.0,0.0,92,0.00,,,-99.99,FreeWX 2.05,2013-10-05 03:35:00,
2013-10-05 04:40:00,55.8,53.4,29.97,North,-999,0.0,0.0,92,0.00,,,-99.99,FreeWX 2.05,2013-10-05 03:40:00,
2013-10-05 04:45:00,55.9,53.6,29.97,North,-999,0.0,0.0,92,0.00,,,-99.99,FreeWX 2.05,2013-10-05 03:45:00,
2013-10-05 04:55:00,56.1,53.8,30.00,North,-999,0.0,0.0,92,0.00,,,-99.99,FreeWX 2.05,2013-10-05 03:55:00,
2013-10-05 05:05:00,56.3,54.0,30.00,North,-999,0.0,0.0,92,0.00,,,-99.99,FreeWX 2.05,2013-10-05 04:05:00,
2013-10-05 05:15:00,56.5,54.1,30.00,North,-999,0.0,0.0,92,0.00,,,-99.99,FreeWX 2.05,2013-10-05 04:15:00,
2013-10-05 05:20:00,56.7,54.3,30.00,North,-999,0.0,0.0,92,0.00,,,-99.99,FreeWX 2.05,2013-10-05 04:20:00,
2013-10-05 05:25:00,56.7,54.3,30.00,North,-999,0.0,0.0,92,0.00,,,-99.99,FreeWX 2.05,2013-10-05 04:25:00,
2013-10-05 05:30:00,56.7,54.3,30.00,North,-999,0.0,0.0,92,0.00,,,-99.99,FreeWX 2.05,2013-10-05 04:30:00,
2013-10-05 05:35:00,56.8,54.9,30.00,North,-999,0.0,0.0,93,0.00,,,-99.99,FreeWX 2.05,2013-10-05 04:35:00,
2013-10-05 05:40:00,56.8,54.9,30.00,North,-999,0.0,0.0,93,0.00,,,-99.99,FreeWX 2.05,2013-10-05 04:40:00,
2013-10-05 05:45:00,56.8,54.9,30.00,North,-999,0.0,0.0,93,0.00,,,-99.99,FreeWX 2.05,2013-10-05 04:45:00,
2013-10-05 05:55:00,56.8,54.9,30.00,North,-999,0.0,0.0,93,0.00,,,-99.99,FreeWX 2.05,2013-10-05 04:55:00,
2013-10-05 06:00:00,56.8,54.9,30.00,North,-999,0.0,0.0,93,0.00,,,-99.99,FreeWX 2.05,2013-10-05 05:00:00,
2013-10-05 06:05:00,57.0,55.0,30.00,North,-999,0.0,0.0,93,0.00,,,-99.99,FreeWX 2.05,2013-10-05 05:05:00,
2013-10-05 06:10:00,57.0,55.0,30.00,North,-999,0.0,0.0,93,0.00,,,-99.99,FreeWX 2.05,2013-10-05 05:10:00,
2013-10-05 06:20:00,57.0,55.0,30.00,North,-999,0.0,0.0,93,0.00,,,-99.99,FreeWX 2.05,2013-10-05 05:20:00,
2013-10-05 06:25:00,57.0,55.0,30.00,North,-999,0.0,0.0,93,0.00,,,-99.99,FreeWX 2.05,2013-10-05 05:25:00,
2013-10-05 06:35:00,57.0,55.0,30.00,North,-999,0.0,0.0,93,0.00,,,-99.99,FreeWX 2.05,2013-10-05 05:35:00,
2013-10-05 06:40:00,57.2,55.2,30.03,North,-999,0.0,0.0,93,0.00,,,-99.99,FreeWX 2.05,2013-10-05 05:40:00,
2013-10-05 06:50:00,57.2,55.2,30.03,North,-999,0.0,0.0,93,0.00,,,-99.99,FreeWX 2.05,2013-10-05 05:50:00,
2013-10-05 06:56:00,57.2,55.2,30.03,North,-999,0.0,0.0,93,0.00,,,-99.99,FreeWX 2.05,2013-10-05 05:56:00,
2013-10-05 07:01:00,57.2,55.2,30.03,North,-999,0.0,0.0,93,0.00,,,-99.99,FreeWX 2.05,2013-10-05 06:01:00,
2013-10-05 07:11:00,57.2,55.2,30.03,North,-999,0.0,3.1,93,0.00,,,-99.99,FreeWX 2.05,2013-10-05 06:11:00,
2013-10-05 07:21:00,57.2,55.2,30.03,North,-999,0.0,2.7,93,0.00,,,-99.99,FreeWX 2.05,2013-10-05 06:21:00,
2013-10-05 07:26:00,57.2,55.4,30.03,North,-999,0.0,3.1,94,0.00,,,-99.99,FreeWX 2.05,2013-10-05 06:26:00,
2013-10-05 07:36:00,57.2,55.4,30.03,North,-999,0.0,0.0,94,0.00,,,-99.99,FreeWX 2.05,2013-10-05 06:36:00,
2013-10-05 07:41:00,57.2,55.4,30.03,North,-999,0.0,4.0,94,0.00,,,-99.99,FreeWX 2.05,2013-10-05 06:41:00,
2013-10-05 07:46:00,57.2,55.4,30.03,North,-999,0.0,2.7,94,0.00,,,-99.99,FreeWX 2.05,2013-10-05 06:46:00,
2013-10-05 07:56:00,57.2,55.4,30.03,North,-999,0.0,0.0,94,0.00,,,-99.99,FreeWX 2.05,2013-10-05 06:56:00,
2013-10-05 08:06:00,57.4,55.6,30.03,North,-999,0.0,2.7,94,0.00,,,-99.99,FreeWX 2.05,2013-10-05 07:06:00,
2013-10-05 08:11:00,57.6,55.8,30.06,North,-999,0.0,0.0,94,0.00,,,-99.99,FreeWX 2.05,2013-10-05 07:11:00,
2013-10-05 08:21:00,57.7,55.9,30.06,North,-999,0.0,4.5,94,0.00,,,-99.99,FreeWX 2.05,2013-10-05 07:21:00,
2013-10-05 08:26:00,57.9,56.1,30.06,North,-999,0.0,3.6,94,0.00,,,-99.99,FreeWX 2.05,2013-10-05 07:26:00,
2013-10-05 08:31:00,57.9,56.1,30.06,North,-999,0.0,3.6,94,0.00,,,-99.99,FreeWX 2.05,2013-10-05 07:31:00,
2013-10-05 08:41:00,58.3,56.5,30.06,North,-999,0.0,3.1,94,0.00,,,-99.99,FreeWX 2.05,2013-10-05 07:41:00,
2013-10-05 08:51:00,58.6,56.8,30.06,North,-999,0.0,4.0,94,0.00,,,-99.99,FreeWX 2.05,2013-10-05 07:51:00,
2013-10-05 08:56:00,58.8,57.4,30.06,North,-999,0.0,0.0,95,0.00,,,-99.99,FreeWX 2.05,2013-10-05 07:56:00,
2013-10-05 09:01:00,59.0,57.6,30.06,North,-999,0.0,3.1,95,0.00,,,-99.99,FreeWX 2.05,2013-10-05 08:01:00,
2013-10-05 09:06:00,59.2,57.7,30.06,North,-999,0.0,4.0,95,0.00,,,-99.99,FreeWX 2.05,2013-10-05 08:06:00,
2013-10-05 09:16:00,59.5,58.1,30.06,North,-999,0.0,3.1,95,0.00,,,-99.99,FreeWX 2.05,2013-10-05 08:16:00,
2013-10-05 09:21:00,59.7,58.3,30.06,North,-999,0.0,3.1,95,0.00,,,-99.99,FreeWX 2.05,2013-10-05 08:21:00,
2013-10-05 09:26:00,60.1,58.6,30.09,North,-999,0.0,3.6,95,0.00,,,-99.99,FreeWX 2.05,2013-10-05 08:26:00,
2013-10-05 09:31:00,60.4,59.0,30.09,North,-999,0.0,4.9,95,0.00,,,-99.99,FreeWX 2.05,2013-10-05 08:31:00,
2013-10-05 09:41:00,60.8,59.4,30.09,North,-999,0.0,4.0,95,0.00,,,-99.99,FreeWX 2.05,2013-10-05 08:41:00,
2013-10-05 09:51:00,61.0,59.5,30.09,North,-999,0.0,4.5,95,0.00,,,-99.99,FreeWX 2.05,2013-10-05 08:51:00,
2013-10-05 09:56:00,61.3,59.9,30.09,North,-999,0.0,2.7,95,0.00,,,-99.99,FreeWX 2.05,2013-10-05 08:56:00,
2013-10-05 10:06:00,61.3,59.9,30.09,West,273,1.0,6.3,95,0.00,,,-99.99,FreeWX 2.05,2013-10-05 09:06:00,
2013-10-05 10:11:00,61.3,59.9,30.09,WSW,246,1.0,4.9,95,0.00,,,-99.99,FreeWX 2.05,2013-10-05 09:11:00,
2013-10-05 10:21:00,62.1,60.6,30.09,West,268,1.0,5.4,95,0.00,,,-99.99,FreeWX 2.05,2013-10-05 09:21:00,
2013-10-05 10:26:00,62.2,60.8,30.09,West,274,2.0,5.4,95,0.00,,,-99.99,FreeWX 2.05,2013-10-05 09:26:00,
2013-10-05 10:36:00,62.8,61.0,30.09,NW,316,1.0,4.0,94,0.00,,,-99.99,FreeWX 2.05,2013-10-05 09:36:00,
2013-10-05 10:46:00,63.1,61.3,30.09,North,-999,0.0,4.5,94,0.00,,,-99.99,FreeWX 2.05,2013-10-05 09:46:00,
2013-10-05 10:51:00,63.3,61.5,30.09,WNW,298,1.0,4.5,94,0.00,,,-99.99,FreeWX 2.05,2013-10-05 09:51:00,
2013-10-05 11:01:00,63.7,61.7,30.09,North,-999,0.0,4.9,93,0.00,,,-99.99,FreeWX 2.05,2013-10-05 10:01:00,
2013-10-05 11:11:00,64.4,62.2,30.09,North,-999,0.0,4.0,93,0.00,,,-99.99,FreeWX 2.05,2013-10-05 10:11:00,
2013-10-05 11:16:00,64.6,62.4,30.09,North,-999,0.0,3.6,93,0.00,,,-99.99,FreeWX 2.05,2013-10-05 10:16:00,
2013-10-05 11:21:00,64.8,62.4,30.09,North,-999,0.0,5.4,92,0.00,,,-99.99,FreeWX 2.05,2013-10-05 10:21:00,
2013-10-05 11:26:00,64.8,62.4,30.12,North,-999,0.0,2.7,92,0.00,,,-99.99,FreeWX 2.05,2013-10-05 10:26:00,
2013-10-05 11:36:00,64.8,62.1,30.12,WNW,294,1.0,6.3,91,0.00,,,-99.99,FreeWX 2.05,2013-10-05 10:36:00,
2013-10-05 11:41:00,64.4,61.3,30.12,WNW,296,2.0,4.9,90,0.00,,,-99.99,FreeWX 2.05,2013-10-05 10:41:00,
2013-10-05 11:51:00,64.9,61.9,30.12,West,281,1.0,4.0,90,0.00,,,-99.99,FreeWX 2.05,2013-10-05 10:51:00,
2013-10-05 12:01:00,66.0,62.6,30.12,West,266,1.0,3.6,89,0.00,,,-99.99,FreeWX 2.05,2013-10-05 11:01:00,
2013-10-05 12:06:00,66.6,63.0,30.12,North,-999,0.0,5.8,88,0.00,,,-99.99,FreeWX 2.05,2013-10-05 11:06:00,
2013-10-05 12:11:00,66.9,63.0,30.12,North,-999,0.0,3.1,87,0.00,,,-99.99,FreeWX 2.05,2013-10-05 11:11:00,
2013-10-05 12:16:00,66.7,62.1,30.12,North,-999,0.0,4.5,85,0.00,,,-99.99,FreeWX 2.05,2013-10-05 11:16:00,
2013-10-05 12:21:00,66.6,61.5,30.12,West,278,1.0,4.5,84,0.00,,,-99.99,FreeWX 2.05,2013-10-05 11:21:00,
2013-10-05 12:31:00,66.2,60.6,30.12,West,272,1.0,3.6,82,0.00,,,-99.99,FreeWX 2.05,2013-10-05 11:31:00,
2013-10-05 12:41:00,66.4,60.1,30.12,North,-999,0.0,0.0,80,0.00,,,-99.99,FreeWX 2.05,2013-10-05 11:41:00,
2013-10-05 12:46:00,66.6,60.3,30.12,North,-999,0.0,4.5,80,0.00,,,-99.99,FreeWX 2.05,2013-10-05 11:46:00,
2013-10-05 12:56:00,66.9,59.9,30.12,North,-999,0.0,3.6,78,0.00,,,-99.99,FreeWX 2.05,2013-10-05 11:56:00,
2013-10-05 13:01:00,66.6,59.2,30.12,North,-999,0.0,0.0,77,0.00,,,-99.99,FreeWX 2.05,2013-10-05 12:01:00,
2013-10-05 13:11:00,66.0,57.9,30.12,North,-999,0.0,3.6,75,0.00,,,-99.99,FreeWX 2.05,2013-10-05 12:11:00,
2013-10-05 13:21:00,65.7,55.9,30.12,NW,321,1.0,5.8,71,0.00,,,-99.99,FreeWX 2.05,2013-10-05 12:21:00,
2013-10-05 13:26:00,65.8,56.5,30.12,NNW,330,1.0,2.7,72,0.00,,,-99.99,FreeWX 2.05,2013-10-05 12:26:00,
2013-10-05 13:31:00,66.0,56.3,30.12,North,-999,0.0,4.0,71,0.00,,,-99.99,FreeWX 2.05,2013-10-05 12:31:00,
2013-10-05 13:41:00,66.2,56.5,30.12,North,-999,0.0,4.5,71,0.00,,,-99.99,FreeWX 2.05,2013-10-05 12:41:00,
2013-10-05 13:46:00,66.2,56.1,30.12,WNW,284,1.0,5.4,70,0.00,,,-99.99,FreeWX 2.05,2013-10-05 12:46:00,
2013-10-05 13:56:00,65.8,55.4,30.15,North,-999,0.0,3.1,69,0.00,,,-99.99,FreeWX 2.05,2013-10-05 12:56:00,
2013-10-05 14:01:00,65.8,55.4,30.15,North,-999,0.0,4.0,69,0.00,,,-99.99,FreeWX 2.05,2013-10-05 13:01:00,
2013-10-05 14:06:00,65.7,55.2,30.15,North,-999,0.0,0.0,69,0.00,,,-99.99,FreeWX 2.05,2013-10-05 13:06:00,
2013-10-05 14:16:00,65.5,55.0,30.15,North,-999,0.0,4.5,69,0.00,,,-99.99,FreeWX 2.05,2013-10-05 13:16:00,
2013-10-05 14:21:00,65.5,54.7,30.15,WNW,282,1.0,4.0,68,0.00,,,-99.99,FreeWX 2.05,2013-10-05 13:21:00,
2013-10-05 14:31:00,65.5,55.0,30.15,North,-999,0.0,3.6,69,0.00,,,-99.99,FreeWX 2.05,2013-10-05 13:31:00,
2013-10-05 14:36:00,65.5,55.0,30.15,North,-999,0.0,4.5,69,0.00,,,-99.99,FreeWX 2.05,2013-10-05 13:36:00,
2013-10-05 14:41:00,65.5,54.7,30.15,WNW,295,1.0,4.5,68,0.00,,,-99.99,FreeWX 2.05,2013-10-05 13:41:00,
2013-10-05 14:46:00,65.5,54.7,30.15,WNW,300,1.0,4.0,68,0.00,,,-99.99,FreeWX 2.05,2013-10-05 13:46:00,
2013-10-05 14:51:00,65.7,54.9,30.15,North,-999,0.0,2.7,68,0.00,,,-99.99,FreeWX 2.05,2013-10-05 13:51:00,
2013-10-05 14:56:00,65.8,55.4,30.15,North,-999,0.0,4.0,69,0.00,,,-99.99,FreeWX 2.05,2013-10-05 13:56:00,
2013-10-05 15:06:00,66.2,55.8,30.15,North,-999,0.0,0.0,69,0.00,,,-99.99,FreeWX 2.05,2013-10-05 14:06:00,
2013-10-05 15:11:00,66.2,55.8,30.15,North,-999,0.0,0.0,69,0.00,,,-99.99,FreeWX 2.05,2013-10-05 14:11:00,
2013-10-05 15:21:00,66.6,56.1,30.15,North,-999,0.0,0.0,69,0.00,,,-99.99,FreeWX 2.05,2013-10-05 14:21:00,
2013-10-05 15:31:00,66.4,55.4,30.15,North,-999,0.0,2.7,68,0.00,,,-99.99,FreeWX 2.05,2013-10-05 14:31:00,
2013-10-05 15:41:00,66.0,54.7,30.15,North,-999,0.0,4.5,67,0.00,,,-99.99,FreeWX 2.05,2013-10-05 14:41:00,
2013-10-05 15:51:00,65.5,54.1,30.15,North,-999,0.0,0.0,67,0.00,,,-99.99,FreeWX 2.05,2013-10-05 14:51:00,
2013-10-05 15:56:00,65.3,54.5,30.15,North,-999,0.0,0.0,68,0.00,,,-99.99,FreeWX 2.05,2013-10-05 14:56:00,
2013-10-05 16:01:00,65.1,54.0,30.15,North,-999,0.0,4.0,67,0.00,,,-99.99,FreeWX 2.05,2013-10-05 15:01:00,
2013-10-05 16:06:00,64.8,53.6,30.15,North,-999,0.0,3.6,67,0.00,,,-99.99,FreeWX 2.05,2013-10-05 15:06:00,
2013-10-05 16:16:00,64.6,53.4,30.15,North,-999,0.0,0.0,67,0.00,,,-99.99,FreeWX 2.05,2013-10-05 15:16:00,
2013-10-05 16:21:00,64.6,53.4,30.15,North,-999,0.0,4.0,67,0.00,,,-99.99,FreeWX 2.05,2013-10-05 15:21:00,
2013-10-05 16:31:00,64.4,53.2,30.15,North,-999,0.0,0.0,67,0.00,,,-99.99,FreeWX 2.05,2013-10-05 15:31:00,
2013-10-05 16:36:00,64.4,53.2,30.15,North,-999,0.0,0.0,67,0.00,,,-99.99,FreeWX 2.05,2013-10-05 15:36:00,
2013-10-05 16:41:00,64.4,53.2,30.15,North,-999,0.0,0.0,67,0.00,,,-99.99,FreeWX 2.05,2013-10-05 15:41:00,
2013-10-05 16:51:00,64.6,53.4,30.15,North,-999,0.0,0.0,67,0.00,,,-99.99,FreeWX 2.05,2013-10-05 15:51:00,
2013-10-05 16:56:00,64.8,54.0,30.15,North,-999,0.0,0.0,68,0.00,,,-99.99,FreeWX 2.05,2013-10-05 15:56:00,
2013-10-05 17:01:00,64.9,54.1,30.15,North,-999,0.0,0.0,68,0.00,,,-99.99,FreeWX 2.05,2013-10-05 16:01:00,
2013-10-05 17:11:00,65.5,54.7,30.15,North,-999,0.0,0.0,68,0.00,,,-99.99,FreeWX 2.05,2013-10-05 16:11:00,
2013-10-05 17:16:00,66.0,55.2,30.15,North,-999,0.0,0.0,68,0.00,,,-99.99,FreeWX 2.05,2013-10-05 16:16:00,
2013-10-05 17:21:00,66.0,55.2,30.15,North,-999,0.0,3.1,68,0.00,,,-99.99,FreeWX 2.05,2013-10-05 16:21:00,
2013-10-05 17:26:00,66.4,55.4,30.18,North,-999,0.0,0.0,68,0.00,,,-99.99,FreeWX 2.05,2013-10-05 16:26:00,
2013-10-05 17:36:00,66.0,54.7,30.18,North,-999,0.0,0.0,67,0.00,,,-99.99,FreeWX 2.05,2013-10-05 16:36:00,
2013-10-05 17:46:00,65.3,53.6,30.18,North,-999,0.0,0.0,66,0.00,,,-99.99,FreeWX 2.05,2013-10-05 16:46:00,
2013-10-05 17:56:00,64.8,53.1,30.18,North,-999,0.0,0.0,66,0.00,,,-99.99,FreeWX 2.05,2013-10-05 16:56:00,
2013-10-05 18:01:00,64.4,52.7,30.18,North,-999,0.0,0.0,66,0.00,,,-99.99,FreeWX 2.05,2013-10-05 17:01:00,
2013-10-05 18:06:00,64.0,52.5,30.18,North,-999,0.0,0.0,66,0.00,,,-99.99,FreeWX 2.05,2013-10-05 17:06:00,
2013-10-05 18:16:00,63.5,52.0,30.18,North,-999,0.0,0.0,66,0.00,,,-99.99,FreeWX 2.05,2013-10-05 17:16:00,
2013-10-05 18:21:00,63.3,52.2,30.18,North,-999,0.0,0.0,67,0.00,,,-99.99,FreeWX 2.05,2013-10-05 17:21:00,
2013-10-05 18:26:00,63.0,51.8,30.18,North,-999,0.0,0.0,67,0.00,,,-99.99,FreeWX 2.05,2013-10-05 17:26:00,
2013-10-05 18:36:00,62.2,51.1,30.18,North,-999,0.0,0.0,67,0.00,,,-99.99,FreeWX 2.05,2013-10-05 17:36:00,
2013-10-05 18:41:00,61.7,51.1,30.18,North,-999,0.0,0.0,68,0.00,,,-99.99,FreeWX 2.05,2013-10-05 17:41:00,
2013-10-05 18:51:00,61.0,50.7,30.18,North,-999,0.0,0.0,69,0.00,,,-99.99,FreeWX 2.05,2013-10-05 17:51:00,
2013-10-05 18:56:00,60.6,50.4,30.18,North,-999,0.0,0.0,69,0.00,,,-99.99,FreeWX 2.05,2013-10-05 17:56:00,
2013-10-05 19:01:00,60.3,50.0,30.18,North,-999,0.0,0.0,69,0.00,,,-99.99,FreeWX 2.05,2013-10-05 18:01:00,
2013-10-05 19:11:00,59.4,49.6,30.21,North,-999,0.0,0.0,70,0.00,,,-99.99,FreeWX 2.05,2013-10-05 18:11:00,
2013-10-05 19:21:00,59.2,49.8,30.21,North,-999,0.0,0.0,71,0.00,,,-99.99,FreeWX 2.05,2013-10-05 18:21:00,
2013-10-05 19:26:00,59.0,49.6,30.21,North,-999,0.0,0.0,71,0.00,,,-99.99,FreeWX 2.05,2013-10-05 18:26:00,
2013-10-05 19:31:00,58.8,49.5,30.21,North,-999,0.0,0.0,71,0.00,,,-99.99,FreeWX 2.05,2013-10-05 18:31:00,
2013-10-05 19:36:00,58.6,49.6,30.21,North,-999,0.0,0.0,72,0.00,,,-99.99,FreeWX 2.05,2013-10-05 18:36:00,
2013-10-05 19:46:00,58.6,49.6,30.21,North,-999,0.0,0.0,72,0.00,,,-99.99,FreeWX 2.05,2013-10-05 18:46:00,
2013-10-05 19:51:00,58.5,49.8,30.21,North,-999,0.0,0.0,73,0.00,,,-99.99,FreeWX 2.05,2013-10-05 18:51:00,
2013-10-05 20:01:00,58.3,49.6,30.21,North,-999,0.0,0.0,73,0.00,,,-99.99,FreeWX 2.05,2013-10-05 19:01:00,
2013-10-05 20:11:00,57.9,49.3,30.21,North,-999,0.0,0.0,73,0.00,,,-99.99,FreeWX 2.05,2013-10-05 19:11:00,
2013-10-05 20:16:00,57.7,49.5,30.21,North,-999,0.0,0.0,74,0.00,,,-99.99,FreeWX 2.05,2013-10-05 19:16:00,
2013-10-05 20:26:00,57.6,49.3,30.21,North,-999,0.0,0.0,74,0.00,,,-99.99,FreeWX 2.05,2013-10-05 19:26:00,
2013-10-05 20:36:00,57.7,49.8,30.21,North,-999,0.0,0.0,75,0.00,,,-99.99,FreeWX 2.05,2013-10-05 19:36:00,
2013-10-05 20:41:00,57.7,49.8,30.21,North,-999,0.0,0.0,75,0.00,,,-99.99,FreeWX 2.05,2013-10-05 19:41:00,
2013-10-05 20:46:00,57.9,50.4,30.21,North,-999,0.0,0.0,76,0.00,,,-99.99,FreeWX 2.05,2013-10-05 19:46:00,
2013-10-05 20:56:00,57.9,50.4,30.21,North,-999,0.0,0.0,76,0.00,,,-99.99,FreeWX 2.05,2013-10-05 19:56:00,
2013-10-05 21:01:00,57.9,50.7,30.21,North,-999,0.0,0.0,77,0.00,,,-99.99,FreeWX 2.05,2013-10-05 20:01:00,
2013-10-05 21:11:00,58.1,50.9,30.21,North,-999,0.0,0.0,77,0.00,,,-99.99,FreeWX 2.05,2013-10-05 20:11:00,
2013-10-05 21:16:00,57.9,51.1,30.21,North,-999,0.0,0.0,78,0.00,,,-99.99,FreeWX 2.05,2013-10-05 20:16:00,
2013-10-05 21:26:00,58.1,51.3,30.24,North,-999,0.0,0.0,78,0.00,,,-99.99,FreeWX 2.05,2013-10-05 20:26:00,
2013-10-05 21:31:00,58.1,51.3,30.24,North,-999,0.0,0.0,78,0.00,,,-99.99,FreeWX 2.05,2013-10-05 20:31:00,
2013-10-05 21:41:00,58.1,51.6,30.24,North,-999,0.0,0.0,79,0.00,,,-99.99,FreeWX 2.05,2013-10-05 20:41:00,
2013-10-05 21:51:00,58.3,51.8,30.24,North,-999,0.0,0.0,79,0.00,,,-99.99,FreeWX 2.05,2013-10-05 20:51:00,
2013-10-05 21:56:00,58.5,52.3,30.24,North,-999,0.0,0.0,80,0.00,,,-99.99,FreeWX 2.05,2013-10-05 20:56:00,
2013-10-05 22:06:00,58.1,52.0,30.24,North,-999,0.0,0.0,80,0.00,,,-99.99,FreeWX 2.05,2013-10-05 21:06:00,
2013-10-05 22:16:00,57.9,51.8,30.24,North,-999,0.0,0.0,80,0.00,,,-99.99,FreeWX 2.05,2013-10-05 21:16:00,
2013-10-05 22:21:00,57.6,51.4,30.24,North,-999,0.0,0.0,80,0.00,,,-99.99,FreeWX 2.05,2013-10-05 21:21:00,
2013-10-05 22:26:00,57.2,51.1,30.24,North,-999,0.0,0.0,80,0.00,,,-99.99,FreeWX 2.05,2013-10-05 21:26:00,
2013-10-05 22:36:00,56.7,50.9,30.24,North,-999,0.0,0.0,81,0.00,,,-99.99,FreeWX 2.05,2013-10-05 21:36:00,
2013-10-05 22:46:00,56.3,50.5,30.24,North,-999,0.0,0.0,81,0.00,,,-99.99,FreeWX 2.05,2013-10-05 21:46:00,
2013-10-05 22:56:00,56.1,50.7,30.24,North,-999,0.0,0.0,82,0.00,,,-99.99,FreeWX 2.05,2013-10-05 21:56:00,
2013-10-05 23:01:00,55.9,50.5,30.24,North,-999,0.0,0.0,82,0.00,,,-99.99,FreeWX 2.05,2013-10-05 22:01:00,
2013-10-05 23:06:00,55.8,50.4,30.24,North,-999,0.0,0.0,82,0.00,,,-99.99,FreeWX 2.05,2013-10-05 22:06:00,
2013-10-05 23:11:00,55.6,50.2,30.24,North,-999,0.0,0.0,82,0.00,,,-99.99,FreeWX 2.05,2013-10-05 22:11:00,
2013-10-05 23:16:00,55.4,50.0,30.24,North,-999,0.0,0.0,82,0.00,,,-99.99,FreeWX 2.05,2013-10-05 22:16:00,
2013-10-05 23:26:00,55.2,49.8,30.24,North,-999,0.0,0.0,82,0.00,,,-99.99,FreeWX 2.05,2013-10-05 22:26:00,
2013-10-05 23:31:00,55.2,50.2,30.24,North,-999,0.0,0.0,83,0.00,,,-99.99,FreeWX 2.05,2013-10-05 22:31:00,
2013-10-05 23:41:00,55.2,50.2,30.24,North,-999,0.0,0.0,83,0.00,,,-99.99,FreeWX 2.05,2013-10-05 22:41:00,
2013-10-05 23:46:00,55.2,50.2,30.24,North,-999,0.0,0.0,83,0.00,,,-99.99,FreeWX 2.05,2013-10-05 22:46:00,
2013-10-05 23:51:00,55.2,50.2,30.24,North,-999,0.0,0.0,83,0.00,,,-99.99,FreeWX 2.05,2013-10-05 22:51:00,